Tracking 21676 objects as of 29-Oct-2020
HD Live streaming from Space Station
objects crossing your sky now

GALILEO 23 (2C9)

Track GALILEO 23 (2C9) now!
GALILEO 23 (2C9) is classified as:


NORAD ID: 43566
Int'l Code: 2018-060C
Perigee: 23,217.7 km
Apogee: 23,240.5 km
Inclination: 56.9 °
Period: 844.7 minutes
Semi major axis: 29600 km
RCS: Unknown
Launch date: July 25, 2018
Source: European Space Agency (ESA)
Launch site: FRENCH GUIANA (FRGUI)
aabbcc
Your satellite tracking list
Your tracking list is empty




NASA's NSSDC Master Catalog

Two Line Element Set (TLE):
1 43566U 18060C   20301.59244861 -.00000097 +00000-0 +00000-0 0  9991
2 43566 056.8931 037.4369 0003852 249.8717 110.0911 01.70476225014097
Source of the keplerian elements: AFSPC